[[{"header":{"parameterUnit":"m.s-1","parameterCategory":1,"la1":30.2991,"la2":30.254,"lo1":-89.0895,"lo2":-89.0444,"dy":0.0017,"dx":0.0017,"nx":28,"ny":28,"refTime":"2026-02-12T03:00:00:Z","depth":0,"parameterNumber":2,"parameterNumberName":"U-component_of_WINDS"},"data":[0,0,0,0,0,0,0,0,0,0,0,0,0,0,0,0,0,0,0,0,0,0,0,0,0,0,0,0,0,0,0,0,0,0,0,0,0,0,0,0,0,0,0,0,0,0,0,0,0,0,0,0,0,0,0,0,0,0,1.4403,1.4404,0,1.4489,1.449,1.4491,1.4488,1.4487,1.4486,1.4485,1.4577,1.458,1.4583,0,0,0,0,0,0,0,0,0,0,0,0,0,1.424,1.4243,1.4403,1.4404,1.4405,1.4489,1.449,1.4491,1.4489,1.4487,1.4486,1.4484,1.4575,1.458,1.4584,0,0,0,0,0,0,0,0,0,0,0,0,0,1.4317,1.4243,1.4403,1.4414,1.4416,1.4488,1.449,1.4491,1.4489,1.4487,1.4485,1.4484,1.4574,1.4579,1.4584,1.4653,0,0,1.4601,1.4603,0,0,0,0,0,0,0,0,1.4312,1.4323,1.4411,1.4413,1.4415,1.4476,1.4466,1.4546,1.4489,1.4461,1.4485,1.4483,1.4545,1.4552,1.4572,1.4657,1.4661,1.4601,1.4604,1.4607,1.4608,0,0,0,0,0,0,0,1.4307,1.4319,1.4437,1.4412,1.4415,1.4415,1.4424,1.4481,1.4512,1.4464,1.4464,1.4474,1.4546,1.4567,1.4575,1.4662,1.4601,1.4606,1.4609,1.4611,1.4807,1.4809,0,0,0,0,0,0,1.4299,1.4314,1.4434,1.444,1.4358,1.442,1.443,1.4458,1.4511,1.4518,1.4475,1.4473,1.4559,1.4568,1.4578,1.4661,1.4607,1.4612,1.4615,1.4805,1.4807,1.481,0,0,0,0,0,0,1.4295,1.4309,1.4431,1.4377,1.4392,1.4424,1.4457,1.4461,1.4483,1.452,1.4526,1.4491,1.4558,1.457,1.4634,1.4664,1.4614,1.4619,1.4803,1.4806,1.4808,1.4829,0,0,0,0,0,0,1.4291,1.4308,1.4334,1.4378,1.4395,1.4485,1.4459,1.4464,1.4492,1.449,1.4537,1.4543,1.4558,1.4626,1.4639,1.4671,1.4623,1.48,1.4804,1.4807,1.4825,1.4832,1.4838,0,0,0,0,0,1.4285,1.4337,1.4335,1.435,1.4428,1.4486,1.4497,1.4511,1.4494,1.4521,1.4544,1.4542,1.4659,1.4632,1.4647,1.4681,1.4798,1.4803,1.4807,1.4823,1.4831,1.4837,0,0,0,0,0,0,1.4298,1.4343,1.4342,1.4409,1.4444,1.4486,1.452,1.452,1.4561,1.4558,1.4575,1.4586,1.4649,1.4671,1.4641,1.475,1.4726,1.4734,1.4733,1.4741,1.4747,1.4741,1.4627,0,0,0,0,0,1.4308,1.4351,1.4388,1.4445,1.4462,1.4488,1.4514,1.4522,1.4559,1.4574,1.4602,1.4639,1.4684,1.4714,1.4757,1.4828,1.4839,1.4859,1.4865,1.487,1.4876,1.4915,1.4925,1.4824,1.4824,1.4824,0,0,1.4331,1.4361,1.4387,1.4448,1.4476,1.452,1.45,1.4548,1.4582,1.4582,1.4643,1.4665,1.4707,1.4775,1.4806,1.4795,1.4906,1.4875,1.4879,1.4883,1.4921,1.493,1.4939,1.4828,1.4827,1.4826,0,0,1.4395,1.4421,1.4471,1.4499,1.454,1.4557,1.4569,1.4611,1.4625,1.4687,1.4687,1.4728,1.4805,1.4835,1.486,1.4934,1.4933,1.4948,1.498,1.5018,1.5026,1.5033,1.506,1.5069,1.4955,1.4955,1.4955,0,1.4418,1.4484,1.4497,1.4545,1.4572,1.4572,1.4623,1.465,1.4704,1.4723,1.471,1.4806,1.4835,1.4909,1.4927,1.4947,1.4962,1.4943,1.5024,1.5031,1.5038,1.5063,1.5073,1.4956,1.4956,1.4956,1.4956,0,1.451,1.4556,1.4592,1.4642,1.4673,1.4723,1.4744,1.4774,1.4779,1.4797,1.486,1.4894,1.4944,1.4962,1.4968,1.5037,1.5029,1.502,1.4997,1.5049,1.5073,1.5083,1.4958,1.4958,1.4957,1.4957,0,0,1.4586,1.4642,1.4655,1.4678,1.4724,1.476,1.4809,1.4857,1.4882,1.4919,1.4961,1.5026,1.5017,1.5046,1.5056,1.5089,1.5145,1.5075,1.5076,1.5087,1.5223,1.523,1.5241,1.5144,1.5146,1.5148,1.5219,0,1.4655,1.4741,1.4754,1.483,1.4873,1.4873,1.4916,1.4949,1.4968,1.5007,1.5027,1.5073,1.5058,1.5075,1.5108,1.5131,1.5173,1.5126,1.5184,1.5186,1.5174,1.5254,1.5261,1.5328,1.5229,1.5231,1.5232,0,1.4747,1.4785,1.4865,1.4904,1.4923,1.4961,1.5006,1.5043,1.5081,1.5092,1.5123,1.5128,1.518,1.5154,1.5225,1.5193,1.5218,1.5233,1.5236,1.5242,1.5212,1.5263,1.5349,1.5359,1.5247,1.5246,1.5245,0,1.4794,1.4865,1.4923,1.4942,1.4989,1.5016,1.5037,1.5073,1.5101,1.514,1.5158,1.5203,1.5228,1.5263,1.528,1.526,1.5351,1.5326,1.5362,1.5361,1.5381,1.538,1.5473,1.5397,1.5397,1.5396,1.5396,0,1.4869,1.4919,1.4944,1.498,1.5035,1.5049,1.5104,1.5124,1.5155,1.5195,1.5199,1.5236,1.5256,1.5297,1.5311,1.5368,1.5379,1.539,1.5393,1.539,1.5388,1.5406,1.5402,1.5399,1.5398,1.5398,1.5397,0,1.4931,1.495,1.5013,1.5052,1.5063,1.5102,1.5136,1.517,1.5188,1.5238,1.525,1.5278,1.5326,1.5346,1.5406,1.5415,1.548,1.548,1.5467,1.5468,1.5503,1.5499,1.5611,1.5626,1.554,1.554,1.5541,0,1.4978,1.5016,1.5059,1.5085,1.5107,1.5149,1.5177,1.5193,1.5222,1.5266,1.5296,1.5343,1.5382,1.5458,1.5484,1.5529,1.553,1.5566,1.5537,1.5533,1.5531,1.5528,1.5532,1.5572,1.5573,1.5574,1.5574,0,1.506,1.5067,1.5107,1.515,1.5183,1.5218,1.5252,1.5273,1.5294,1.5327,1.5375,1.5405,1.5464,1.5512,1.5558,1.558,1.5581,1.5583,1.5593,1.5591,1.5581,1.5587,1.5482,1.558,1.558,1.5579,1.5579,1.5579,1.5116,1.5149,1.5184,1.5228,1.5255,1.5287,1.5321,1.5342,1.5382,1.5431,1.5438,1.549,1.5526,1.5588,1.5612,1.5653,1.5644,1.566,1.5664,1.5667,1.5669,1.5575,1.5662,1.5662,1.5661,1.5661,1.5661,0,1.5198,1.522,1.526,1.5307,1.5342,1.5338,1.5375,1.5405,1.545,1.5483,1.552,1.5576,1.5621,1.565,1.5696,1.5723,1.5725,1.5735,1.5733,1.5738,1.5675,1.5661,1.5733,1.5733,1.5733,1.5733,1.5733,1.5733,1.5244,1.53,1.5312,1.5381,1.5403,1.5453,1.5475,1.5504,1.553,1.5591,1.5629,1.5647,1.5679,1.5727,1.5768,1.5776,1.5793,1.5803,1.581,1.575,1.5743,1.5736,1.5723,1.5807,1.5807,1.5871,1.5871,1.5872]},{"header":{"parameterUnit":"m.s-1","parameterCategory":1,"la1":30.2991,"la2":30.254,"lo1":-89.0895,"lo2":-89.0444,"dy":0.0017,"dx":0.0017,"nx":28,"ny":28,"refTime":"2026-02-12T03:00:00:Z","depth":0,"parameterNumber":3,"parameterNumberName":"V-component_of_WINDS"},"data":[0,0,0,0,0,0,0,0,0,0,0,0,0,0,0,0,0,0,0,0,0,0,0,0,0,0,0,0,0,0,0,0,0,0,0,0,0,0,0,0,0,0,0,0,0,0,0,0,0,0,0,0,0,0,0,0,0,0,4.1388,4.1388,0,4.1391,4.1391,4.1391,4.1382,4.1382,4.1382,4.1381,4.1384,4.1384,4.1385,0,0,0,0,0,0,0,0,0,0,0,0,0,4.1372,4.1373,4.1388,4.1388,4.1388,4.1391,4.1391,4.1391,4.1382,4.1382,4.1382,4.1381,4.1384,4.1384,4.1385,0,0,0,0,0,0,0,0,0,0,0,0,0,4.1378,4.1373,4.1388,4.1384,4.1384,4.1391,4.1391,4.1391,4.1382,4.1382,4.1381,4.1381,4.1384,4.1384,4.1385,4.1396,0,0,4.1386,4.1387,0,0,0,0,0,0,0,0,4.1377,4.1378,4.1384,4.1384,4.1384,4.1386,4.1387,4.1393,4.1382,4.1383,4.1381,4.1381,4.1385,4.1385,4.1387,4.1397,4.1397,4.1386,4.1387,4.1387,4.1387,0,0,0,0,0,0,0,4.1377,4.1378,4.1389,4.1385,4.1384,4.1381,4.1382,4.1388,4.1386,4.1383,4.1382,4.1383,4.1385,4.1386,4.1387,4.1397,4.1386,4.1387,4.1387,4.1387,4.1415,4.1415,0,0,0,0,0,0,4.1377,4.1378,4.1389,4.1389,4.138,4.1382,4.1382,4.1386,4.1386,4.1386,4.1383,4.1382,4.1386,4.1386,4.1387,4.14,4.1387,4.1387,4.1388,4.1414,4.1415,4.1415,0,0,0,0,0,0,4.1377,4.1379,4.1389,4.1383,4.1385,4.1383,4.1387,4.1386,4.1388,4.1386,4.1386,4.1385,4.1385,4.1386,4.1394,4.14,4.1388,4.1388,4.1414,4.1414,4.1415,4.1426,0,0,0,0,0,0,4.1377,4.1378,4.1383,4.1384,4.1385,4.1396,4.1387,4.1386,4.1389,4.1388,4.1388,4.1388,4.1385,4.1393,4.1394,4.14,4.1388,4.1413,4.1414,4.1415,4.1425,4.1427,4.1428,0,0,0,0,0,4.1376,4.1386,4.1384,4.1385,4.1391,4.1397,4.1397,4.1394,4.1389,4.1394,4.1393,4.1388,4.1399,4.1394,4.1395,4.1401,4.1413,4.1414,4.1415,4.1424,4.1426,4.1428,0,0,0,0,0,0,4.1386,4.1386,4.1383,4.1394,4.1395,4.1395,4.1401,4.1397,4.14,4.1399,4.1395,4.1395,4.1403,4.1403,4.1398,4.1412,4.1405,4.1406,4.1411,4.1414,4.1415,4.1415,4.1389,0,0,0,0,0,4.139,4.1395,4.1394,4.1404,4.1405,4.1403,4.1405,4.1402,4.1404,4.1404,4.1404,4.1405,4.1409,4.1411,4.1415,4.1425,4.1424,4.143,4.1431,4.1433,4.1433,4.1438,4.144,4.1418,4.1418,4.1418,0,0,4.1397,4.1398,4.1401,4.1406,4.1407,4.1411,4.1403,4.1409,4.1412,4.1405,4.1412,4.1412,4.1413,4.1422,4.1425,4.1422,4.1439,4.1434,4.1435,4.1435,4.1439,4.1441,4.1443,4.1419,4.1419,4.1419,0,0,4.1413,4.1414,4.1421,4.1422,4.1424,4.1422,4.1424,4.1424,4.1424,4.1431,4.1425,4.1429,4.1436,4.1436,4.1437,4.1452,4.1448,4.1454,4.1462,4.1466,4.1468,4.1469,4.1474,4.1476,4.1455,4.1455,4.1455,0,4.1421,4.1429,4.1425,4.1431,4.1433,4.1427,4.1434,4.1435,4.1437,4.1438,4.1435,4.1442,4.1443,4.1451,4.1454,4.1456,4.1457,4.1453,4.1468,4.1469,4.1471,4.1475,4.1477,4.1455,4.1455,4.1455,4.1455,0,4.1439,4.1444,4.1449,4.1452,4.1454,4.1461,4.1458,4.1461,4.1458,4.1456,4.1463,4.1463,4.1466,4.1468,4.1465,4.1476,4.1473,4.1469,4.1462,4.1473,4.1477,4.1479,4.1456,4.1456,4.1456,4.1456,0,0,4.1461,4.1461,4.1463,4.1463,4.1464,4.1468,4.1473,4.1476,4.1478,4.148,4.1484,4.149,4.1485,4.1487,4.1484,4.1488,4.1498,4.1483,4.1483,4.1485,4.1509,4.1511,4.1513,4.1496,4.1496,4.1496,4.1508,0,4.1475,4.1485,4.1482,4.1491,4.1495,4.1489,4.1494,4.1495,4.1494,4.1497,4.1495,4.1499,4.1494,4.1494,4.1498,4.1496,4.1503,4.1496,4.1499,4.1499,4.1498,4.1515,4.1519,4.153,4.151,4.151,4.151,0,4.1493,4.1495,4.1505,4.1504,4.1506,4.151,4.1512,4.1515,4.1516,4.1515,4.1516,4.1512,4.1517,4.151,4.1517,4.1512,4.1513,4.1512,4.1513,4.1512,4.1505,4.1515,4.1534,4.1535,4.1513,4.1512,4.1512,0,4.1507,4.1512,4.1518,4.1519,4.1519,4.1522,4.1522,4.1522,4.1524,4.1525,4.1526,4.1528,4.1529,4.1531,4.1528,4.1523,4.1534,4.1527,4.1533,4.1533,4.1535,4.1534,4.1553,4.1537,4.1537,4.1537,4.1537,0,4.1522,4.1528,4.1524,4.1528,4.1535,4.1531,4.1537,4.1537,4.1537,4.154,4.1535,4.1538,4.1534,4.1537,4.1534,4.154,4.154,4.1539,4.1538,4.1539,4.1539,4.1539,4.1538,4.1537,4.1537,4.1537,4.1537,0,4.1538,4.1536,4.1543,4.1542,4.1541,4.1546,4.1545,4.1548,4.1547,4.1551,4.1552,4.1549,4.1552,4.1549,4.1551,4.155,4.1556,4.1555,4.1556,4.1555,4.1561,4.156,4.1579,4.1582,4.1564,4.1565,4.1565,0,4.1548,4.1553,4.1552,4.1554,4.1554,4.1557,4.1559,4.1555,4.1557,4.1557,4.156,4.1563,4.1564,4.1569,4.1567,4.1569,4.1567,4.1573,4.1567,4.1567,4.1566,4.1565,4.1565,4.1574,4.1575,4.1575,4.1575,0,4.1566,4.1564,4.1567,4.1568,4.157,4.1572,4.1572,4.1574,4.157,4.1572,4.1575,4.1576,4.1579,4.1581,4.1582,4.1581,4.1577,4.1577,4.1578,4.1579,4.1579,4.1578,4.1559,4.1577,4.1576,4.1576,4.1576,4.1576,4.1578,4.1582,4.1582,4.1584,4.1584,4.1585,4.1588,4.1587,4.1589,4.159,4.1588,4.1591,4.1591,4.1592,4.1592,4.1594,4.1591,4.1593,4.1593,4.1594,4.1594,4.1579,4.1594,4.1594,4.1594,4.1594,4.1594,0,4.1595,4.1594,4.1597,4.1598,4.16,4.1596,4.1597,4.1598,4.1601,4.1601,4.1603,4.1605,4.1607,4.1606,4.1607,4.1609,4.1607,4.1609,4.1609,4.1609,4.1597,4.1596,4.1611,4.1611,4.1611,4.1611,4.1611,4.1611,4.1604,4.1609,4.1607,4.1612,4.1612,4.1615,4.1615,4.1616,4.1615,4.1619,4.162,4.1619,4.1618,4.1619,4.1621,4.162,4.1621,4.1624,4.1622,4.1611,4.161,4.1608,4.1607,4.1624,4.1624,4.1634,4.1634,4.1634]}]]